Tracking 28125 objects as of 3-Oct-2023
HD Live streaming from Space Station
objects crossing your sky now

IRS P6

Track IRS P6 now!
10-day predictions
IRS P6 is classified as:


NORAD ID: 28051
Int'l Code: 2003-046A
Perigee: 741.5 km
Apogee: 826.6 km
Inclination: 98.3 °
Period: 100.4 minutes
Semi major axis: 7155 km
RCS: 5.9386 m2 (large)
Launch date: October 17, 2003
Source: India (IND)
Launch site: SRIHARIKOTA (SRI)

Monitor agricultural, land, and water resources.
Your satellite tracking list
Your tracking list is empty




NASA's NSSDC Master Catalog

Two Line Element Set (TLE):
1 28051U 03046A   23275.83593727  .00000454  00000-0  17267-3 0  9991
2 28051  98.3484 337.3291 0059469  52.1796  87.6091 14.34441908 38735
Source of the keplerian elements: AFSPC